Time,TemperatureF,DewpointF,PressureIn,WindDirection,WindDirectionDegrees,WindSpeedMPH,WindSpeedGustMPH,Humidity,HourlyPrecipIn,Conditions,Clouds,dailyrainin,SoftwareType,DateUTC
2013-03-27 00:12:00,37.7,31.0,30.37,North,5,0.0,0.0,76,0.00,,,0.00,weatherlink.com 1.10,2013-03-27 05:12:00,
2013-03-27 00:27:00,37.4,31.0,30.36,North,5,0.0,0.0,77,0.00,,,0.00,weatherlink.com 1.10,2013-03-27 05:27:00,
2013-03-27 00:42:00,36.5,31.0,30.36,North,5,0.0,1.0,79,0.00,,,0.00,weatherlink.com 1.10,2013-03-27 05:42:00,
2013-03-27 00:58:00,35.8,31.0,30.37,North,5,0.0,0.0,81,0.00,,,0.00,weatherlink.com 1.10,2013-03-27 05:58:00,
2013-03-27 01:13:00,35.5,31.0,30.37,North,5,0.0,0.0,83,0.00,,,0.00,weatherlink.com 1.10,2013-03-27 06:13:00,
2013-03-27 01:28:00,36.1,31.0,30.37,North,5,0.0,0.0,83,0.00,,,0.00,weatherlink.com 1.10,2013-03-27 06:28:00,
2013-03-27 01:43:00,35.8,31.0,30.37,North,5,0.0,0.0,82,0.00,,,0.00,weatherlink.com 1.10,2013-03-27 06:43:00,
2013-03-27 01:58:00,35.5,31.0,30.36,North,5,0.0,0.0,82,0.00,,,0.00,weatherlink.com 1.10,2013-03-27 06:58:00,
2013-03-27 02:13:00,35.5,31.0,30.36,North,5,0.0,0.0,82,0.00,,,0.00,weatherlink.com 1.10,2013-03-27 07:13:00,
2013-03-27 02:28:00,35.3,30.0,30.36,North,5,0.0,0.0,82,0.00,,,0.00,weatherlink.com 1.10,2013-03-27 07:28:00,
2013-03-27 02:43:00,34.8,30.0,30.36,North,5,0.0,0.0,82,0.00,,,0.00,weatherlink.com 1.10,2013-03-27 07:43:00,
2013-03-27 02:58:00,34.6,30.0,30.35,North,5,0.0,0.0,84,0.00,,,0.00,weatherlink.com 1.10,2013-03-27 07:58:00,
2013-03-27 03:13:00,34.5,30.0,30.35,North,5,0.0,0.0,84,0.00,,,0.00,weatherlink.com 1.10,2013-03-27 08:13:00,
2013-03-27 03:28:00,33.9,30.0,30.35,North,5,0.0,0.0,84,0.00,,,0.00,weatherlink.com 1.10,2013-03-27 08:28:00,
2013-03-27 03:43:00,33.3,30.0,30.34,North,5,0.0,0.0,86,0.00,,,0.00,weatherlink.com 1.10,2013-03-27 08:43:00,
2013-03-27 03:58:00,32.8,29.0,30.34,North,5,0.0,0.0,87,0.00,,,0.00,weatherlink.com 1.10,2013-03-27 08:58:00,
2013-03-27 04:13:00,32.6,30.0,30.34,North,5,0.0,0.0,88,0.00,,,0.00,weatherlink.com 1.10,2013-03-27 09:13:00,
2013-03-27 04:28:00,33.0,30.0,30.34,North,5,0.0,0.0,89,0.00,,,0.00,weatherlink.com 1.10,2013-03-27 09:28:00,
2013-03-27 04:43:00,33.2,30.0,30.34,North,5,0.0,0.0,88,0.00,,,0.00,weatherlink.com 1.10,2013-03-27 09:43:00,
2013-03-27 04:58:00,33.0,30.0,30.34,North,5,0.0,0.0,89,0.00,,,0.00,weatherlink.com 1.10,2013-03-27 09:58:00,
2013-03-27 05:13:00,32.6,30.0,30.34,North,5,0.0,0.0,88,0.00,,,0.00,weatherlink.com 1.10,2013-03-27 10:13:00,
2013-03-27 05:28:00,32.6,30.0,30.34,North,5,0.0,0.0,89,0.00,,,0.00,weatherlink.com 1.10,2013-03-27 10:28:00,
2013-03-27 05:43:00,32.6,30.0,30.34,North,5,0.0,0.0,90,0.00,,,0.00,weatherlink.com 1.10,2013-03-27 10:43:00,
2013-03-27 05:58:00,32.9,30.0,30.35,North,5,0.0,0.0,90,0.00,,,0.00,weatherlink.com 1.10,2013-03-27 10:58:00,
2013-03-27 06:13:00,32.4,30.0,30.34,North,5,0.0,0.0,89,0.00,,,0.00,weatherlink.com 1.10,2013-03-27 11:13:00,
2013-03-27 06:28:00,32.1,29.0,30.35,North,5,0.0,0.0,89,0.00,,,0.00,weatherlink.com 1.10,2013-03-27 11:28:00,
2013-03-27 06:43:00,32.0,29.0,30.36,North,5,0.0,0.0,90,0.00,,,0.00,weatherlink.com 1.10,2013-03-27 11:43:00,
2013-03-27 06:58:00,31.7,29.0,30.37,North,5,0.0,0.0,90,0.00,,,0.00,weatherlink.com 1.10,2013-03-27 11:58:00,
2013-03-27 07:13:00,31.5,29.0,30.37,North,5,0.0,0.0,90,0.00,,,0.00,weatherlink.com 1.10,2013-03-27 12:13:00,
2013-03-27 07:28:00,31.6,29.0,30.38,North,5,0.0,0.0,90,0.00,,,0.00,weatherlink.com 1.10,2013-03-27 12:28:00,
2013-03-27 07:45:00,31.9,30.0,30.38,North,5,0.0,0.0,91,0.00,,,0.00,weatherlink.com 1.10,2013-03-27 12:45:00,
2013-03-27 07:58:00,32.6,30.0,30.38,North,5,0.0,0.0,91,0.00,,,0.00,weatherlink.com 1.10,2013-03-27 12:58:00,
2013-03-27 08:13:00,33.8,31.0,30.39,North,5,2.0,2.0,89,0.00,,,0.00,weatherlink.com 1.10,2013-03-27 13:13:00,
2013-03-27 08:28:00,36.5,32.0,30.40,East,86,2.0,3.0,84,0.00,,,0.00,weatherlink.com 1.10,2013-03-27 13:28:00,
2013-03-27 08:43:00,39.6,32.0,30.40,SE,144,2.0,4.0,75,0.00,,,0.00,weatherlink.com 1.10,2013-03-27 13:43:00,
2013-03-27 08:58:00,42.4,31.0,30.40,SSE,148,4.0,7.0,65,0.00,,,0.00,weatherlink.com 1.10,2013-03-27 13:58:00,
2013-03-27 09:13:00,45.3,33.0,30.40,SSE,150,1.0,6.0,62,0.00,,,0.00,weatherlink.com 1.10,2013-03-27 14:13:00,
2013-03-27 09:28:00,48.9,33.0,30.40,South,174,4.0,5.0,55,0.00,,,0.00,weatherlink.com 1.10,2013-03-27 14:28:00,
2013-03-27 09:44:00,51.1,33.0,30.41,SE,140,3.0,5.0,50,0.00,,,0.00,weatherlink.com 1.10,2013-03-27 14:44:00,
2013-03-27 09:59:00,53.2,31.0,30.41,ESE,105,3.0,7.0,43,0.00,,,0.00,weatherlink.com 1.10,2013-03-27 14:59:00,
2013-03-27 10:14:00,55.3,31.0,30.41,East,96,0.0,5.0,40,0.00,,,0.00,weatherlink.com 1.10,2013-03-27 15:14:00,
2013-03-27 10:29:00,56.5,31.0,30.41,SE,146,3.0,7.0,38,0.00,,,0.00,weatherlink.com 1.10,2013-03-27 15:29:00,
2013-03-27 10:44:00,57.4,32.0,30.40,SSE,168,4.0,5.0,39,0.00,,,0.00,weatherlink.com 1.10,2013-03-27 15:44:00,
2013-03-27 10:59:00,58.9,31.0,30.40,SE,126,3.0,8.0,35,0.00,,,0.00,weatherlink.com 1.10,2013-03-27 15:59:00,
2013-03-27 11:14:00,60.6,30.0,30.40,SE,127,1.0,7.0,31,0.00,,,0.00,weatherlink.com 1.10,2013-03-27 16:14:00,
2013-03-27 11:29:00,60.0,29.0,30.39,SSE,165,4.0,10.0,31,0.00,,,0.00,weatherlink.com 1.10,2013-03-27 16:29:00,
2013-03-27 11:44:00,61.9,30.0,30.38,ESE,118,4.0,8.0,30,0.00,,,0.00,weatherlink.com 1.10,2013-03-27 16:44:00,
2013-03-27 11:59:00,63.1,31.0,30.38,ESE,121,3.0,6.0,30,0.00,,,0.00,weatherlink.com 1.10,2013-03-27 16:59:00,
2013-03-27 12:14:00,62.8,28.0,30.38,SSE,159,6.0,6.0,27,0.00,,,0.00,weatherlink.com 1.10,2013-03-27 17:14:00,
2013-03-27 12:29:00,66.4,28.0,30.37,SE,133,3.0,6.0,24,0.00,,,0.00,weatherlink.com 1.10,2013-03-27 17:29:00,
2013-03-27 12:44:00,66.5,30.0,30.36,South,176,0.0,6.0,26,0.00,,,0.00,weatherlink.com 1.10,2013-03-27 17:44:00,
2013-03-27 12:59:00,66.2,31.0,30.35,South,182,4.0,8.0,27,0.00,,,0.00,weatherlink.com 1.10,2013-03-27 17:59:00,
2013-03-27 13:14:00,65.9,32.0,30.34,East,82,2.0,7.0,28,0.00,,,0.00,weatherlink.com 1.10,2013-03-27 18:14:00,
2013-03-27 13:29:00,68.6,28.0,30.34,SSE,166,1.0,7.0,22,0.00,,,0.00,weatherlink.com 1.10,2013-03-27 18:29:00,
2013-03-27 13:44:00,68.6,32.0,30.33,South,183,3.0,7.0,26,0.00,,,0.00,weatherlink.com 1.10,2013-03-27 18:44:00,
2013-03-27 13:59:00,68.0,30.0,30.32,SSW,199,6.0,7.0,24,0.00,,,0.00,weatherlink.com 1.10,2013-03-27 18:59:00,
2013-03-27 14:14:00,70.1,28.0,30.31,SSW,194,4.0,7.0,21,0.00,,,0.00,weatherlink.com 1.10,2013-03-27 19:14:00,
2013-03-27 14:29:00,69.2,30.0,30.30,ESE,123,2.0,9.0,23,0.00,,,0.00,weatherlink.com 1.10,2013-03-27 19:29:00,
2013-03-27 14:44:00,69.4,31.0,30.30,SSE,168,2.0,9.0,24,0.00,,,0.00,weatherlink.com 1.10,2013-03-27 19:44:00,
2013-03-27 14:59:00,69.7,30.0,30.28,SW,217,1.0,6.0,23,0.00,,,0.00,weatherlink.com 1.10,2013-03-27 19:59:00,
2013-03-27 15:14:00,70.8,32.0,30.28,South,179,5.0,6.0,24,0.00,,,0.00,weatherlink.com 1.10,2013-03-27 20:14:00,
2013-03-27 15:29:00,70.8,31.0,30.27,South,172,0.0,7.0,23,0.00,,,0.00,weatherlink.com 1.10,2013-03-27 20:29:00,
2013-03-27 15:44:00,71.8,31.0,30.26,South,191,2.0,8.0,22,0.00,,,0.00,weatherlink.com 1.10,2013-03-27 20:44:00,
2013-03-27 15:59:00,72.2,32.0,30.25,ESE,113,1.0,7.0,23,0.00,,,0.00,weatherlink.com 1.10,2013-03-27 20:59:00,
2013-03-27 16:14:00,71.7,31.0,30.25,South,171,4.0,5.0,22,0.00,,,0.00,weatherlink.com 1.10,2013-03-27 21:14:00,
2013-03-27 16:30:00,71.8,33.0,30.23,SE,144,0.0,6.0,24,0.00,,,0.00,weatherlink.com 1.10,2013-03-27 21:30:00,
2013-03-27 16:45:00,71.9,32.0,30.22,SE,140,1.0,7.0,23,0.00,,,0.00,weatherlink.com 1.10,2013-03-27 21:45:00,
2013-03-27 17:00:00,71.2,33.0,30.22,SE,124,7.0,11.0,24,0.00,,,0.00,weatherlink.com 1.10,2013-03-27 22:00:00,
2013-03-27 17:15:00,70.6,32.0,30.21,SSE,161,3.0,7.0,24,0.00,,,0.00,weatherlink.com 1.10,2013-03-27 22:15:00,
2013-03-27 17:30:00,70.3,33.0,30.21,ESE,103,10.0,10.0,25,0.00,,,0.00,weatherlink.com 1.10,2013-03-27 22:30:00,
2013-03-27 17:45:00,69.7,34.0,30.20,South,171,2.0,8.0,27,0.00,,,0.00,weatherlink.com 1.10,2013-03-27 22:45:00,
2013-03-27 18:00:00,69.1,35.0,30.20,South,174,3.0,6.0,28,0.00,,,0.00,weatherlink.com 1.10,2013-03-27 23:00:00,
2013-03-27 18:14:00,68.6,35.0,30.19,SSE,168,1.0,8.0,29,0.00,,,0.00,weatherlink.com 1.10,2013-03-27 23:14:00,
2013-03-27 18:30:00,68.1,35.0,30.19,SE,138,4.0,7.0,29,0.00,,,0.00,weatherlink.com 1.10,2013-03-27 23:30:00,
2013-03-27 18:45:00,67.4,35.0,30.19,ESE,117,3.0,8.0,30,0.00,,,0.00,weatherlink.com 1.10,2013-03-27 23:45:00,
2013-03-27 19:00:00,66.7,36.0,30.19,South,169,2.0,3.0,32,0.00,,,0.00,weatherlink.com 1.10,2013-03-28 00:00:00,
2013-03-27 19:15:00,65.8,36.0,30.19,SE,129,1.0,5.0,33,0.00,,,0.00,weatherlink.com 1.10,2013-03-28 00:15:00,
2013-03-27 19:30:00,64.8,36.0,30.19,SE,142,1.0,7.0,35,0.00,,,0.00,weatherlink.com 1.10,2013-03-28 00:30:00,
2013-03-27 19:45:00,63.5,37.0,30.20,SSE,165,1.0,2.0,37,0.00,,,0.00,weatherlink.com 1.10,2013-03-28 00:45:00,
2013-03-27 20:00:00,62.2,37.0,30.20,SSE,165,2.0,3.0,40,0.00,,,0.00,weatherlink.com 1.10,2013-03-28 01:00:00,
2013-03-27 20:15:00,61.1,38.0,30.20,SSE,161,2.0,4.0,42,0.00,,,0.00,weatherlink.com 1.10,2013-03-28 01:15:00,
2013-03-27 20:30:00,60.6,38.0,30.21,SSE,147,2.0,7.0,44,0.00,,,0.00,weatherlink.com 1.10,2013-03-28 01:30:00,
2013-03-27 20:45:00,59.9,39.0,30.21,SSE,157,3.0,5.0,46,0.00,,,0.00,weatherlink.com 1.10,2013-03-28 01:45:00,
2013-03-27 21:00:00,59.1,39.0,30.22,SSE,156,2.0,7.0,47,0.00,,,0.00,weatherlink.com 1.10,2013-03-28 02:00:00,
2013-03-27 21:15:00,58.5,39.0,30.22,SSE,155,2.0,7.0,49,0.00,,,0.00,weatherlink.com 1.10,2013-03-28 02:15:00,
2013-03-27 21:30:00,58.2,39.0,30.23,SSE,162,3.0,9.0,50,0.00,,,0.00,weatherlink.com 1.10,2013-03-28 02:30:00,
2013-03-27 21:45:00,57.5,40.0,30.24,SSE,155,2.0,9.0,52,0.00,,,0.00,weatherlink.com 1.10,2013-03-28 02:45:00,
2013-03-27 22:00:00,56.9,40.0,30.25,SE,141,2.0,7.0,54,0.00,,,0.00,weatherlink.com 1.10,2013-03-28 03:00:00,
2013-03-27 22:15:00,56.3,40.0,30.26,South,171,5.0,8.0,55,0.00,,,0.00,weatherlink.com 1.10,2013-03-28 03:15:00,
2013-03-27 22:30:00,55.9,40.0,30.27,SE,142,9.0,9.0,56,0.00,,,0.00,weatherlink.com 1.10,2013-03-28 03:30:00,
2013-03-27 22:45:00,55.4,41.0,30.27,SSE,165,3.0,6.0,58,0.00,,,0.00,weatherlink.com 1.10,2013-03-28 03:45:00,
2013-03-27 23:00:00,54.6,41.0,30.27,SSE,168,4.0,6.0,60,0.00,,,0.00,weatherlink.com 1.10,2013-03-28 04:00:00,
2013-03-27 23:15:00,54.1,41.0,30.27,SSE,166,3.0,5.0,62,0.00,,,0.00,weatherlink.com 1.10,2013-03-28 04:15:00,
2013-03-27 23:30:00,53.5,41.0,30.27,SSE,164,5.0,5.0,64,0.00,,,0.00,weatherlink.com 1.10,2013-03-28 04:30:00,
2013-03-27 23:45:00,53.1,42.0,30.28,SSE,161,2.0,4.0,66,0.00,,,0.00,weatherlink.com 1.10,2013-03-28 04:45:00,